Wetterdaten: aktuell Freitag, 18.06.2021 02:10
Datum Zeit Temperatur Bodentemp. Luftfeuchte Luftdruck Regen Wind Richtung Richtung Sonnenschein
18.06.2021 02:10 22,4 C 22,1 C 61 % 1013 hPa 0,0 l/m 9,9 km/h (2 Bft) N22.5 10 0 min
18.06.2021 02:04 22,1 C 21,8 C 61 % 1013 hPa 0,0 l/m 10,0 km/h (2 Bft) N-NO22.5 15 0 min
18.06.2021 01:59 22,2 C 22,0 C 61 % 1013 hPa 0,0 l/m 8,8 km/h (2 Bft) N22.5 5 0 min
18.06.2021 01:54 22,0 C 21,8 C 63 % 1013 hPa 0,0 l/m 9,9 km/h (2 Bft) N22.5 5 0 min
18.06.2021 01:49 21,7 C 21,8 C 68 % 1013 hPa 0,0 l/m 11,8 km/h (2 Bft) N22.5 10 0 min
18.06.2021 01:44 21,7 C 21,2 C 69 % 1013 hPa 0,0 l/m 7,3 km/h (2 Bft) N-NW 330 0 min
18.06.2021 01:39 21,5 C 21,2 C 67 % 1013 hPa 0,0 l/m 0,0 km/h (0 Bft) NW 320 0 min
18.06.2021 01:34 21,5 C 21,3 C 67 % 1013 hPa 0,0 l/m 0,0 km/h (0 Bft) NW22.5 315 0 min
18.06.2021 01:29 21,8 C 21,1 C 66 % 1013 hPa 0,0 l/m 0,0 km/h (0 Bft) S-SO 150 0 min
18.06.2021 01:24 21,3 C 21,1 C 63 % 1013 hPa 0,0 l/m 0,0 km/h (0 Bft) S-SO 150 0 min
18.06.2021 01:19 21,5 C 21,2 C 61 % 1013 hPa 0,0 l/m 0,0 km/h (0 Bft) S-SO 150 0 min
18.06.2021 01:14 21,8 C 21,3 C 61 % 1013 hPa 0,0 l/m 0,0 km/h (0 Bft) S-SO 150 0 min
18.06.2021 01:09 21,8 C 21,3 C 59 % 1013 hPa 0,0 l/m 0,0 km/h (0 Bft) S-SO 150 0 min
18.06.2021 01:04 22,0 C 21,5 C 57 % 1013 hPa 0,0 l/m 0,0 km/h (0 Bft) S-SO 150 0 min
18.06.2021 01:00 22,2 C 21,5 C 57 % 1013 hPa 0,0 l/m 0,0 km/h (0 Bft) S-SO 150 0 min
18.06.2021 00:54 22,3 C 21,5 C 55 % 1013 hPa 0,0 l/m 0,0 km/h (0 Bft) S-SO 150 0 min
18.06.2021 00:49 22,4 C 21,6 C 53 % 1013 hPa 0,0 l/m 0,0 km/h (0 Bft) S-SO 150 0 min
18.06.2021 00:44 22,7 C 21,6 C 52 % 1013 hPa 0,0 l/m 0,0 km/h (0 Bft) S-SO 150 0 min
18.06.2021 00:39 22,7 C 21,7 C 51 % 1013 hPa 0,0 l/m 0,0 km/h (0 Bft) S-SO 150 0 min
18.06.2021 00:34 22,8 C 21,8 C 51 % 1013 hPa 0,0 l/m 0,0 km/h (0 Bft) S-SO 150 0 min
18.06.2021 00:29 22,9 C 21,9 C 51 % 1013 hPa 0,0 l/m 0,0 km/h (0 Bft) S-SO 150 0 min
18.06.2021 00:24 23,0 C 21,9 C 50 % 1013 hPa 0,0 l/m 0,0 km/h (0 Bft) S-SO 150 0 min
18.06.2021 00:19 23,1 C 22,0 C 49 % 1013 hPa 0,0 l/m 0,0 km/h (0 Bft) S-SO 150 0 min
18.06.2021 00:14 23,3 C 22,1 C 49 % 1013 hPa 0,0 l/m 0,0 km/h (0 Bft) S-SO 150 0 min
18.06.2021 00:09 23,5 C 22,1 C 45 % 1013 hPa 0,0 l/m 0,0 km/h (0 Bft) S-SO 150 0 min
18.06.2021 00:04 23,5 C 22,1 C 45 % 1013 hPa 0,0 l/m 0,0 km/h (0 Bft) S-SO 150 0 min
17.06.2021 23:59 23,6 C 22,2 C 44 % 1013 hPa 0,0 l/m 0,0 km/h (0 Bft) S-SO 155 0 min
17.06.2021 23:54 23,9 C 22,2 C 44 % 1013 hPa 0,0 l/m 0,0 km/h (0 Bft) S-SO 160 0 min
17.06.2021 23:49 24,0 C 22,4 C 44 % 1013 hPa 0,0 l/m 0,0 km/h (0 Bft) S 175 0 min
17.06.2021 23:45 24,3 C 22,6 C 44 % 1013 hPa 0,0 l/m 4,2 km/h (1 Bft) S 175 0 min
17.06.2021 23:39 24,6 C 22,8 C 43 % 1013 hPa 0,0 l/m 5,0 km/h (1 Bft) S22.5 180 0 min
17.06.2021 23:34 24,8 C 23,0 C 43 % 1013 hPa 0,0 l/m 4,7 km/h (1 Bft) W-SW22.5 255 0 min
17.06.2021 23:29 24,4 C 23,1 C 46 % 1013 hPa 0,0 l/m 9,6 km/h (2 Bft) W-SW45 245 0 min
17.06.2021 23:24 24,2 C 23,2 C 50 % 1013 hPa 0,0 l/m 12,0 km/h (2 Bft) NW22.5 305 0 min
17.06.2021 23:19 24,0 C 22,6 C 47 % 1012 hPa 0,0 l/m 0,0 km/h (0 Bft) SO 140 0 min
17.06.2021 23:14 23,7 C 22,8 C 46 % 1012 hPa 0,0 l/m 0,0 km/h (0 Bft) SO 140 0 min
17.06.2021 23:10 23,9 C 22,8 C 46 % 1012 hPa 0,0 l/m 0,0 km/h (0 Bft) SO 140 0 min
17.06.2021 23:04 23,9 C 22,9 C 46 % 1012 hPa 0,0 l/m 0,0 km/h (0 Bft) SO 140 0 min
17.06.2021 22:59 24,0 C 23,0 C 46 % 1012 hPa 0,0 l/m 0,0 km/h (0 Bft) SO 140 0 min
17.06.2021 22:54 24,2 C 23,2 C 47 % 1012 hPa 0,0 l/m 0,0 km/h (0 Bft) S-SO22.5 155 0 min
17.06.2021 22:49 24,3 C 23,4 C 46 % 1012 hPa 0,0 l/m 0,0 km/h (0 Bft) S-SW 195 0 min
17.06.2021 22:44 24,3 C 23,5 C 47 % 1012 hPa 0,0 l/m 0,0 km/h (0 Bft) S 190 0 min
17.06.2021 22:39 24,4 C 23,6 C 47 % 1012 hPa 0,0 l/m 0,0 km/h (0 Bft) S-SW 210 0 min
17.06.2021 22:34 24,6 C 23,8 C 45 % 1012 hPa 0,0 l/m 0,0 km/h (0 Bft) SW 225 0 min
17.06.2021 22:29 24,8 C 23,8 C 44 % 1012 hPa 0,0 l/m 0,0 km/h (0 Bft) SW 225 0 min
17.06.2021 22:24 25,1 C 23,8 C 43 % 1012 hPa 0,0 l/m 0,0 km/h (0 Bft) SW 225 0 min
17.06.2021 22:19 25,3 C 24,0 C 41 % 1012 hPa 0,0 l/m 0,0 km/h (0 Bft) SW 225 0 min
17.06.2021 22:14 25,8 C 24,1 C 40 % 1012 hPa 0,0 l/m 0,0 km/h (0 Bft) SW 225 0 min
17.06.2021 22:09 26,0 C 24,2 C 38 % 1012 hPa 0,0 l/m 0,0 km/h (0 Bft) SW 225 0 min
_ Min-Zeit 05:44 08:24 10:29 12:59 - 03:49 - - -
Minimum _ 19,8 C 14,1 C 5 % 1011 hPa - 0,0 km/h (0 Bft) - - -
_ Max-Zeit 15:49 16:14 03:59 23:24 03:05 11:39 - - 08:35
Maximum _ 34,3 C 38,6 C 70 % 1013 hPa 0,0 l/m 28,6 km/h
SO (5 Bft)
- - 6 min
Durchschnitt _ 27,4 C 24,4 C 33 % 1011 hPa #0,0 l/m 11,3 km/h (2 Bft) SO - #0 min.